[[{"header":{"parameterUnit":"m.s-1","parameterCategory":1,"la1":30.2991,"la2":30.254,"lo1":-89.0895,"lo2":-89.0444,"dy":0.0017,"dx":0.0017,"nx":28,"ny":28,"refTime":"2025-09-01T21:00:00:Z","depth":0,"parameterNumber":2,"parameterNumberName":"U-component_of_WINDS"},"data":[0,0,0,0,0,0,0,0,0,0,0,0,0,0,0,0,0,0,0,0,0,0,0,0,0,0,0,0,0,0,0,0,0,0,0,0,0,0,0,0,0,0,0,0,0,0,0,0,0,0,0,0,0,0,0,0,0,0,-1.9807,-1.9807,0,-1.98,-1.98,-1.98,-1.9726,-1.9724,-1.9722,-1.9721,-1.9714,-1.9716,-1.9717,0,0,0,0,0,0,0,0,0,0,0,0,0,-1.9757,-1.9758,-1.9807,-1.9807,-1.9807,-1.98,-1.98,-1.98,-1.9726,-1.9724,-1.9722,-1.972,-1.9714,-1.9716,-1.9718,0,0,0,0,0,0,0,0,0,0,0,0,0,-1.9767,-1.9759,-1.9807,-1.9769,-1.9766,-1.98,-1.98,-1.98,-1.9727,-1.9724,-1.9721,-1.9719,-1.9713,-1.9716,-1.9718,-1.9788,0,0,-1.9725,-1.9726,0,0,0,0,0,0,0,0,-1.9767,-1.9769,-1.9775,-1.9772,-1.9768,-1.9761,-1.978,-1.9796,-1.9728,-1.9742,-1.9721,-1.9717,-1.9732,-1.9733,-1.9738,-1.9787,-1.9787,-1.9725,-1.9727,-1.9728,-1.9728,0,0,0,0,0,0,0,-1.9766,-1.9769,-1.9804,-1.9775,-1.9771,-1.9753,-1.9751,-1.9783,-1.9753,-1.974,-1.9735,-1.9735,-1.973,-1.9736,-1.9737,-1.9787,-1.9725,-1.9727,-1.9729,-1.9729,-1.9893,-1.9896,0,0,0,0,0,0,-1.9771,-1.9769,-1.9804,-1.9804,-1.9761,-1.9756,-1.9754,-1.9766,-1.9752,-1.9747,-1.9737,-1.9732,-1.9733,-1.9734,-1.9736,-1.9817,-1.9728,-1.973,-1.9731,-1.989,-1.9894,-1.9897,0,0,0,0,0,0,-1.977,-1.9775,-1.9805,-1.9785,-1.9787,-1.976,-1.9774,-1.9767,-1.9773,-1.975,-1.9744,-1.9749,-1.9731,-1.9733,-1.9775,-1.9815,-1.9731,-1.9733,-1.9887,-1.9891,-1.9895,-1.9978,0,0,0,0,0,0,-1.9769,-1.9775,-1.9801,-1.9786,-1.9789,-1.9844,-1.9776,-1.9769,-1.9777,-1.977,-1.9759,-1.9755,-1.9729,-1.9772,-1.9778,-1.9817,-1.9735,-1.9883,-1.9889,-1.9894,-1.9972,-1.9985,-1.9996,0,0,0,0,0,-1.9767,-1.9825,-1.9803,-1.9807,-1.9821,-1.9846,-1.9848,-1.9816,-1.9781,-1.9807,-1.9792,-1.9755,-1.981,-1.9777,-1.9783,-1.9823,-1.988,-1.9887,-1.9893,-1.9966,-1.9982,-1.9996,0,0,0,0,0,0,-1.9845,-1.9822,-1.9797,-1.9852,-1.9851,-1.9834,-1.9866,-1.9835,-1.9845,-1.9837,-1.9798,-1.9797,-1.9845,-1.9838,-1.9802,-1.989,-1.9839,-1.9847,-1.9892,-1.9907,-1.9919,-1.992,-1.9737,0,0,0,0,0,-1.9869,-1.9891,-1.987,-1.992,-1.9921,-1.9894,-1.9903,-1.9879,-1.9878,-1.9877,-1.9865,-1.9865,-1.9882,-1.9894,-1.9909,-1.9971,-1.9967,-2.0001,-2.0014,-2.0024,-2.0031,-2.0062,-2.0077,-1.9919,-1.9919,-1.9918,0,0,-1.9918,-1.9908,-1.9924,-1.9935,-1.9932,-1.9956,-1.9894,-1.9922,-1.9939,-1.9881,-1.992,-1.9912,-1.9909,-1.9961,-1.9983,-1.9957,-2.0074,-2.0032,-2.004,-2.0042,-2.0071,-2.0086,-2.0099,-1.9923,-1.9922,-1.9922,0,0,-2.0019,-2.0014,-2.0055,-2.0053,-2.0049,-2.003,-2.004,-2.0027,-2.0019,-2.0057,-2.0014,-2.0034,-2.0065,-2.0065,-2.0068,-2.0169,-2.0136,-2.0175,-2.0239,-2.027,-2.0283,-2.0294,-2.0329,-2.0342,-2.0183,-2.0183,-2.0183,0,-2.008,-2.0114,-2.008,-2.011,-2.0116,-2.0065,-2.0106,-2.0106,-2.0107,-2.0112,-2.0083,-2.012,-2.0115,-2.0166,-2.019,-2.0195,-2.0205,-2.0176,-2.0284,-2.0294,-2.0304,-2.0337,-2.0351,-2.0188,-2.0187,-2.0187,-2.0186,0,-2.019,-2.0214,-2.0248,-2.0249,-2.0259,-2.0295,-2.0266,-2.028,-2.0255,-2.024,-2.028,-2.0271,-2.0283,-2.0293,-2.027,-2.0341,-2.0325,-2.029,-2.0238,-2.0324,-2.0355,-2.0368,-2.0195,-2.0193,-2.0191,-2.019,0,0,-2.034,-2.0322,-2.0335,-2.0335,-2.0326,-2.0345,-2.0378,-2.0389,-2.0402,-2.0405,-2.0431,-2.0459,-2.0426,-2.0431,-2.0407,-2.0434,-2.0514,-2.0396,-2.0395,-2.0418,-2.0592,-2.0618,-2.0633,-2.0492,-2.0494,-2.0496,-2.0592,0,-2.0437,-2.0493,-2.0462,-2.0522,-2.0544,-2.0495,-2.0524,-2.0523,-2.0509,-2.0526,-2.0511,-2.053,-2.0486,-2.0489,-2.0514,-2.0499,-2.0548,-2.0492,-2.0517,-2.0518,-2.0518,-2.0649,-2.0677,-2.0767,-2.0604,-2.0606,-2.0607,0,-2.0558,-2.0565,-2.0627,-2.0614,-2.0622,-2.0648,-2.0656,-2.0672,-2.0669,-2.0657,-2.0663,-2.0632,-2.0664,-2.0612,-2.0656,-2.0618,-2.0626,-2.0621,-2.0624,-2.0624,-2.0568,-2.0653,-2.0796,-2.0809,-2.0626,-2.0624,-2.0623,0,-2.0661,-2.0686,-2.0726,-2.0727,-2.0713,-2.0733,-2.0728,-2.0722,-2.0731,-2.0738,-2.0743,-2.0753,-2.0759,-2.0768,-2.0741,-2.0707,-2.0788,-2.0735,-2.078,-2.078,-2.0799,-2.0798,-2.0944,-2.0805,-2.0805,-2.0805,-2.0804,0,-2.0772,-2.0812,-2.0772,-2.0796,-2.0839,-2.0804,-2.0848,-2.0838,-2.0833,-2.0855,-2.0814,-2.0835,-2.0798,-2.0816,-2.0795,-2.0834,-2.0837,-2.0829,-2.0823,-2.0832,-2.0833,-2.0837,-2.083,-2.0808,-2.0807,-2.0807,-2.0806,0,-2.0894,-2.0869,-2.0909,-2.0892,-2.0889,-2.0922,-2.0907,-2.0929,-2.0913,-2.0941,-2.0946,-2.092,-2.0939,-2.0913,-2.0929,-2.0915,-2.0969,-2.0953,-2.097,-2.0965,-2.1011,-2.1007,-2.1165,-2.1183,-2.1033,-2.1034,-2.1035,0,-2.0967,-2.0996,-2.0982,-2.0994,-2.0991,-2.101,-2.1018,-2.0985,-2.0995,-2.0994,-2.1016,-2.1031,-2.1042,-2.1074,-2.1057,-2.107,-2.1054,-2.1108,-2.1056,-2.1064,-2.1055,-2.1053,-2.1056,-2.1119,-2.1121,-2.1123,-2.1124,0,-2.1098,-2.1084,-2.1097,-2.1106,-2.1117,-2.1123,-2.1125,-2.1137,-2.1102,-2.1116,-2.1134,-2.1143,-2.1159,-2.1175,-2.1183,-2.1178,-2.1145,-2.1141,-2.1151,-2.1162,-2.117,-2.1166,-2.0999,-2.1137,-2.1136,-2.1135,-2.1134,-2.1134,-2.1198,-2.1221,-2.1215,-2.1231,-2.1229,-2.1232,-2.1252,-2.1238,-2.1253,-2.1263,-2.1242,-2.1266,-2.1262,-2.1269,-2.1268,-2.1286,-2.1262,-2.1278,-2.1282,-2.1286,-2.1293,-2.1167,-2.1287,-2.1287,-2.1286,-2.1286,-2.1286,0,-2.1327,-2.132,-2.1335,-2.134,-2.1352,-2.132,-2.1321,-2.1334,-2.1355,-2.1353,-2.1364,-2.1386,-2.1401,-2.1385,-2.1397,-2.1414,-2.14,-2.1419,-2.1417,-2.1416,-2.1314,-2.1303,-2.143,-2.143,-2.143,-2.143,-2.143,-2.143,-2.1395,-2.1433,-2.1419,-2.1455,-2.1448,-2.1471,-2.1474,-2.1477,-2.1475,-2.1501,-2.1513,-2.1502,-2.1495,-2.1506,-2.1518,-2.1513,-2.1519,-2.1543,-2.1533,-2.1438,-2.1424,-2.141,-2.14,-2.1545,-2.1545,-2.1634,-2.1635,-2.1636]},{"header":{"parameterUnit":"m.s-1","parameterCategory":1,"la1":30.2991,"la2":30.254,"lo1":-89.0895,"lo2":-89.0444,"dy":0.0017,"dx":0.0017,"nx":28,"ny":28,"refTime":"2025-09-01T21:00:00:Z","depth":0,"parameterNumber":3,"parameterNumberName":"V-component_of_WINDS"},"data":[0,0,0,0,0,0,0,0,0,0,0,0,0,0,0,0,0,0,0,0,0,0,0,0,0,0,0,0,0,0,0,0,0,0,0,0,0,0,0,0,0,0,0,0,0,0,0,0,0,0,0,0,0,0,0,0,0,0,2.3568,2.3568,0,2.3569,2.3569,2.3569,2.3552,2.3552,2.3551,2.3551,2.3552,2.3552,2.3552,0,0,0,0,0,0,0,0,0,0,0,0,0,2.355,2.355,2.3568,2.3568,2.3568,2.3569,2.3569,2.3569,2.3552,2.3552,2.3551,2.3551,2.3551,2.3552,2.3552,0,0,0,0,0,0,0,0,0,0,0,0,0,2.3555,2.355,2.3568,2.356,2.3559,2.3569,2.3569,2.3569,2.3552,2.3552,2.3551,2.355,2.3551,2.3552,2.3553,2.3571,0,0,2.3555,2.3555,0,0,0,0,0,0,0,0,2.3555,2.3556,2.3561,2.356,2.3559,2.356,2.3563,2.357,2.3552,2.3555,2.3551,2.355,2.3555,2.3555,2.3557,2.3571,2.3571,2.3555,2.3555,2.3555,2.3556,0,0,0,0,0,0,0,2.3554,2.3555,2.3568,2.3561,2.356,2.3555,2.3555,2.3564,2.3559,2.3554,2.3553,2.3554,2.3554,2.3556,2.3557,2.3571,2.3555,2.3555,2.3556,2.3556,2.3598,2.3598,0,0,0,0,0,0,2.3555,2.3555,2.3568,2.3568,2.3555,2.3556,2.3556,2.356,2.3558,2.3558,2.3554,2.3553,2.3555,2.3556,2.3557,2.3576,2.3555,2.3556,2.3556,2.3597,2.3598,2.3599,0,0,0,0,0,0,2.3555,2.3557,2.3568,2.3561,2.3563,2.3557,2.3562,2.3561,2.3563,2.3558,2.3557,2.3557,2.3555,2.3556,2.3567,2.3576,2.3556,2.3557,2.3596,2.3597,2.3598,2.3617,0,0,0,0,0,0,2.3554,2.3557,2.3564,2.3562,2.3563,2.3579,2.3563,2.3561,2.3564,2.3562,2.3561,2.356,2.3554,2.3566,2.3568,2.3577,2.3557,2.3595,2.3597,2.3598,2.3615,2.3618,2.3621,0,0,0,0,0,2.3554,2.3569,2.3564,2.3566,2.3572,2.3579,2.358,2.3573,2.3565,2.3571,2.3568,2.356,2.3575,2.3567,2.3569,2.3578,2.3595,2.3596,2.3598,2.3614,2.3617,2.3621,0,0,0,0,0,0,2.3572,2.3568,2.3563,2.3578,2.3579,2.3576,2.3585,2.3578,2.3581,2.3579,2.3571,2.3571,2.3583,2.3582,2.3573,2.3595,2.3583,2.3585,2.3595,2.3598,2.3601,2.36,2.3558,0,0,0,0,0,2.3578,2.3584,2.3581,2.3594,2.3595,2.359,2.3593,2.3588,2.3588,2.3589,2.3587,2.3587,2.3592,2.3596,2.36,2.3615,2.3614,2.3623,2.3625,2.3628,2.3629,2.3636,2.3639,2.3604,2.3604,2.3604,0,0,2.3589,2.3588,2.3593,2.3598,2.3598,2.3604,2.359,2.3598,2.3602,2.359,2.36,2.3598,2.3599,2.3612,2.3617,2.3611,2.3639,2.363,2.3632,2.3632,2.3638,2.3641,2.3644,2.3605,2.3605,2.3604,0,0,2.3614,2.3614,2.3625,2.3625,2.3626,2.3622,2.3625,2.3623,2.3621,2.3632,2.3622,2.3627,2.3636,2.3636,2.3637,2.3661,2.3653,2.3663,2.3677,2.3684,2.3687,2.3689,2.3696,2.3699,2.3665,2.3665,2.3665,0,2.3628,2.3638,2.3631,2.3639,2.3641,2.363,2.364,2.3641,2.3643,2.3644,2.3638,2.3648,2.3647,2.3659,2.3665,2.3667,2.3669,2.3663,2.3687,2.3689,2.3691,2.3698,2.3701,2.3666,2.3666,2.3666,2.3666,0,2.3655,2.3662,2.367,2.3672,2.3675,2.3684,2.3678,2.3682,2.3677,2.3674,2.3683,2.3683,2.3686,2.3689,2.3684,2.37,2.3696,2.3689,2.3676,2.3696,2.3702,2.3705,2.3668,2.3667,2.3667,2.3667,0,0,2.369,2.3688,2.3691,2.3691,2.369,2.3695,2.3704,2.3707,2.371,2.3712,2.3717,2.3725,2.3718,2.3719,2.3714,2.372,2.3738,2.3712,2.3712,2.3715,2.3754,2.3759,2.3762,2.3733,2.3734,2.3734,2.3753,0,2.3712,2.3726,2.372,2.3735,2.374,2.373,2.3737,2.3737,2.3734,2.3738,2.3736,2.374,2.3731,2.3732,2.3738,2.3734,2.3745,2.3733,2.3737,2.3738,2.3736,2.3765,2.377,2.3789,2.3756,2.3756,2.3757,0,2.374,2.3743,2.3757,2.3755,2.3757,2.3763,2.3765,2.377,2.377,2.3767,2.3769,2.3762,2.377,2.3759,2.3768,2.376,2.3762,2.376,2.3761,2.376,2.3747,2.3763,2.3795,2.3797,2.3761,2.376,2.376,0,2.3762,2.3769,2.3779,2.3779,2.3777,2.3782,2.3781,2.378,2.3782,2.3784,2.3785,2.3788,2.379,2.3792,2.3786,2.3779,2.3796,2.3785,2.3793,2.3793,2.3796,2.3796,2.3826,2.38,2.38,2.38,2.38,0,2.3787,2.3796,2.3788,2.3794,2.3803,2.3797,2.3806,2.3805,2.3804,2.3809,2.38,2.3805,2.3798,2.3801,2.3797,2.3805,2.3806,2.3804,2.3802,2.3803,2.3804,2.3803,2.3801,2.38,2.38,2.38,2.38,0,2.3813,2.3808,2.3817,2.3814,2.3814,2.3821,2.3818,2.3823,2.382,2.3826,2.3827,2.3822,2.3826,2.3821,2.3824,2.3821,2.3832,2.3829,2.3832,2.383,2.3838,2.3837,2.3869,2.3872,2.3845,2.3845,2.3845,0,2.3828,2.3834,2.3832,2.3835,2.3834,2.3839,2.3841,2.3834,2.3836,2.3837,2.3841,2.3844,2.3846,2.3853,2.385,2.3852,2.3848,2.3859,2.3849,2.3849,2.3847,2.3846,2.3846,2.3861,2.3861,2.3862,2.3862,0,2.3855,2.3852,2.3855,2.3857,2.386,2.3861,2.3862,2.3865,2.3858,2.3861,2.3864,2.3866,2.3869,2.3872,2.3874,2.3873,2.3866,2.3866,2.3867,2.3868,2.3869,2.3867,2.3836,2.3864,2.3864,2.3864,2.3864,2.3864,2.3875,2.388,2.3878,2.3882,2.3882,2.3883,2.3887,2.3884,2.3887,2.3889,2.3885,2.389,2.3889,2.389,2.389,2.3893,2.3888,2.3891,2.3892,2.3892,2.3893,2.3869,2.3894,2.3893,2.3893,2.3893,2.3893,0,2.39,2.3899,2.3902,2.3903,2.3906,2.39,2.39,2.3902,2.3906,2.3906,2.3908,2.3912,2.3915,2.3912,2.3914,2.3917,2.3914,2.3917,2.3916,2.3916,2.3898,2.3895,2.392,2.392,2.392,2.392,2.392,2.392,2.3913,2.3921,2.3918,2.3925,2.3924,2.3928,2.3928,2.3929,2.3929,2.3933,2.3935,2.3933,2.3932,2.3934,2.3936,2.3935,2.3935,2.394,2.3937,2.392,2.3917,2.3915,2.3912,2.394,2.394,2.3955,2.3955,2.3956]}]]